[[{"header":{"parameterUnit":"m.s-1","parameterCategory":1,"la1":30.2991,"la2":30.254,"lo1":-89.0895,"lo2":-89.0444,"dy":0.0017,"dx":0.0017,"nx":28,"ny":28,"refTime":"2023-08-12T09:00:00:Z","depth":0,"parameterNumber":2,"parameterNumberName":"U-component_of_WINDS"},"data":[0,0,0,0,0,0,0,0,0,0,0,0,0,0,0,0,0,0,0,0,0,0,0,0,0,0,0,0,0,0,0,0,0,0,0,0,0,0,0,0,0,0,0,0,0,0,0,0,0,0,0,0,0,0,0,0,0,0,4.1678,4.168,0,4.1817,4.1819,4.182,4.1764,4.176,4.1757,4.1754,4.1898,4.1905,4.1912,0,0,0,0,0,0,0,0,0,0,0,0,0,4.1366,4.1372,4.1678,4.168,4.1682,4.1817,4.1819,4.1821,4.1764,4.176,4.1756,4.1752,4.1896,4.1904,4.1913,0,0,0,0,0,0,0,0,0,0,0,0,0,4.1503,4.1374,4.1678,4.167,4.167,4.1817,4.1819,4.1821,4.1765,4.176,4.1755,4.1751,4.1893,4.1904,4.1914,4.2077,0,0,4.1946,4.195,0,0,0,0,0,0,0,0,4.1495,4.1514,4.1669,4.1671,4.1672,4.1768,4.1762,4.1907,4.1766,4.1729,4.1754,4.1748,4.1859,4.1872,4.1909,4.2084,4.209,4.1946,4.1953,4.1957,4.196,0,0,0,0,0,0,0,4.1486,4.1508,4.1733,4.1672,4.1673,4.166,4.1674,4.1789,4.182,4.1732,4.1728,4.1745,4.1859,4.1899,4.1912,4.2092,4.1946,4.1955,4.1962,4.1966,4.2408,4.2413,0,0,0,0,0,0,4.1476,4.1501,4.1729,4.1737,4.1569,4.1669,4.1685,4.1742,4.1819,4.1826,4.1749,4.1742,4.1884,4.19,4.1917,4.2113,4.1957,4.1967,4.1973,4.2402,4.2409,4.2415,0,0,0,0,0,0,4.1469,4.1497,4.1723,4.1618,4.1646,4.168,4.1745,4.1747,4.1788,4.1832,4.1837,4.1785,4.1881,4.1902,4.2037,4.2117,4.1972,4.1981,4.2396,4.2404,4.2412,4.2507,0,0,0,0,0,0,4.1461,4.1495,4.1557,4.162,4.1652,4.1841,4.1749,4.1754,4.1805,4.1797,4.1867,4.1873,4.1878,4.2022,4.2048,4.2129,4.1989,4.2389,4.2399,4.2409,4.2497,4.2517,4.2535,0,0,0,0,0,4.145,4.1578,4.156,4.1588,4.173,4.1846,4.1864,4.1867,4.1812,4.1875,4.1903,4.1871,4.2104,4.2037,4.2065,4.215,4.2384,4.2396,4.2408,4.2488,4.2513,4.2534,0,0,0,0,0,0,4.1525,4.1587,4.1567,4.172,4.1778,4.1836,4.1915,4.1893,4.1969,4.1958,4.1958,4.1975,4.2114,4.2146,4.2069,4.2312,4.2236,4.2254,4.2287,4.2311,4.233,4.2319,4.1998,0,0,0,0,0,4.1559,4.1647,4.1697,4.1827,4.1857,4.1881,4.1932,4.1929,4.1989,4.2014,4.2052,4.2113,4.22,4.2257,4.2339,4.2501,4.2515,4.2573,4.2593,4.2608,4.2624,4.2712,4.2739,4.2455,4.2455,4.2455,0,0,4.1631,4.1675,4.1731,4.1843,4.1888,4.198,4.1903,4.2003,4.2072,4.2029,4.2159,4.219,4.2257,4.2406,4.2474,4.2437,4.2706,4.2624,4.2636,4.2644,4.2728,4.2755,4.2778,4.2464,4.2462,4.2461,0,0,4.1809,4.1851,4.1964,4.201,4.2079,4.2094,4.2121,4.2183,4.2201,4.2331,4.2301,4.2383,4.2532,4.2582,4.2627,4.2823,4.2797,4.285,4.295,4.3036,4.3058,4.3078,4.3148,4.3174,4.2866,4.2866,4.2866,0,4.189,4.2027,4.2025,4.2129,4.2179,4.2144,4.2259,4.2304,4.2396,4.2432,4.2388,4.2575,4.2618,4.2779,4.2826,4.2864,4.2895,4.2842,4.3055,4.3075,4.3093,4.316,4.3187,4.2872,4.2872,4.2871,4.287,0,4.2123,4.2219,4.2302,4.2391,4.245,4.2559,4.2575,4.2635,4.2627,4.2647,4.278,4.283,4.2922,4.296,4.2953,4.312,4.3094,4.3053,4.2977,4.3126,4.319,4.3215,4.2881,4.2879,4.2877,4.2876,0,0,4.2353,4.2439,4.247,4.251,4.2582,4.2656,4.2764,4.2853,4.2905,4.2969,4.306,4.3187,4.3149,4.32,4.3198,4.3273,4.3426,4.3223,4.3225,4.3259,4.3613,4.3644,4.3674,4.3409,4.3414,4.3417,4.3608,0,4.2537,4.2724,4.2726,4.2898,4.2987,4.2954,4.3048,4.3103,4.3124,4.3203,4.3227,4.3317,4.326,4.3291,4.3363,4.3392,4.3497,4.3378,4.3493,4.3498,4.3478,4.3707,4.374,4.3917,4.3632,4.3636,4.3639,0,4.2777,4.2848,4.3029,4.3088,4.3126,4.321,4.3291,4.3367,4.3428,4.3439,4.3495,4.3482,4.3592,4.3511,4.3663,4.3582,4.3629,4.365,4.3657,4.3669,4.3578,4.3725,4.3973,4.4,4.3678,4.3675,4.3672,0,4.2927,4.3068,4.3195,4.323,4.3302,4.3362,4.3395,4.3452,4.3505,4.3577,4.3611,4.3695,4.3742,4.3807,4.3817,4.3757,4.397,4.389,4.3982,4.3982,4.4029,4.4026,4.4289,4.4059,4.4058,4.4058,4.4057,0,4.3133,4.3245,4.3263,4.3341,4.3466,4.3467,4.3591,4.3619,4.367,4.3753,4.373,4.3809,4.3817,4.3899,4.3908,4.4032,4.4053,4.4065,4.4066,4.4068,4.4066,4.4099,4.4087,4.4065,4.4063,4.4062,4.4061,0,4.3322,4.3339,4.3475,4.3531,4.3548,4.3638,4.3687,4.3762,4.378,4.3886,4.3911,4.3941,4.4036,4.4052,4.4164,4.4169,4.4319,4.4307,4.4298,4.4296,4.4388,4.4379,4.4682,4.4722,4.4465,4.4467,4.4469,0,4.3452,4.3538,4.3604,4.3657,4.3693,4.378,4.3834,4.3838,4.3896,4.3972,4.4038,4.413,4.4204,4.4357,4.4389,4.4475,4.4465,4.4565,4.4478,4.4477,4.4467,4.4462,4.4471,4.4582,4.4585,4.4587,4.4589,0,4.3683,4.3686,4.3765,4.3846,4.3911,4.3976,4.4037,4.4082,4.4095,4.416,4.4256,4.4314,4.4427,4.4519,4.4604,4.4639,4.4617,4.4616,4.4642,4.4645,4.4636,4.4642,4.4344,4.4609,4.4607,4.4606,4.4605,4.4604,4.3847,4.3921,4.3979,4.4067,4.4113,4.417,4.4243,4.4271,4.4351,4.4443,4.444,4.4546,4.4605,4.4717,4.4757,4.484,4.4808,4.4846,4.4855,4.4865,4.4874,4.4622,4.4856,4.4855,4.4855,4.4854,4.4854,0,4.4076,4.4111,4.4192,4.4278,4.4347,4.4319,4.4385,4.4445,4.4538,4.4595,4.4667,4.4778,4.4867,4.4906,4.4993,4.5052,4.5045,4.5075,4.5071,4.508,4.4897,4.4866,4.508,4.508,4.508,4.508,4.508,4.508,4.4204,4.4328,4.4339,4.4485,4.452,4.4622,4.4663,4.4716,4.4761,4.4885,4.4958,4.4982,4.5032,4.5123,4.5204,4.5213,4.5247,4.5282,4.5287,4.5116,4.5093,4.5071,4.5042,4.5289,4.529,4.5463,4.5464,4.5466]},{"header":{"parameterUnit":"m.s-1","parameterCategory":1,"la1":30.2991,"la2":30.254,"lo1":-89.0895,"lo2":-89.0444,"dy":0.0017,"dx":0.0017,"nx":28,"ny":28,"refTime":"2023-08-12T09:00:00:Z","depth":0,"parameterNumber":3,"parameterNumberName":"V-component_of_WINDS"},"data":[0,0,0,0,0,0,0,0,0,0,0,0,0,0,0,0,0,0,0,0,0,0,0,0,0,0,0,0,0,0,0,0,0,0,0,0,0,0,0,0,0,0,0,0,0,0,0,0,0,0,0,0,0,0,0,0,0,0,-1.1779,-1.1779,0,-1.1839,-1.184,-1.184,-1.1864,-1.1864,-1.1863,-1.1863,-1.1925,-1.1926,-1.1928,0,0,0,0,0,0,0,0,0,0,0,0,0,-1.1684,-1.1686,-1.1779,-1.1779,-1.178,-1.1839,-1.184,-1.184,-1.1864,-1.1864,-1.1863,-1.1863,-1.1924,-1.1926,-1.1928,0,0,0,0,0,0,0,0,0,0,0,0,0,-1.1733,-1.1686,-1.1779,-1.1799,-1.1801,-1.1839,-1.184,-1.1841,-1.1864,-1.1864,-1.1863,-1.1863,-1.1923,-1.1926,-1.1928,-1.195,0,0,-1.1937,-1.1938,0,0,0,0,0,0,0,0,-1.173,-1.1736,-1.1795,-1.1798,-1.18,-1.1844,-1.1829,-1.1877,-1.1864,-1.184,-1.1863,-1.1863,-1.1898,-1.1903,-1.1914,-1.1953,-1.1955,-1.1937,-1.1938,-1.194,-1.194,0,0,0,0,0,0,0,-1.1727,-1.1734,-1.1803,-1.1796,-1.1799,-1.1805,-1.1812,-1.1838,-1.187,-1.1842,-1.1844,-1.1851,-1.1899,-1.1912,-1.1916,-1.1956,-1.1937,-1.1939,-1.1941,-1.1942,-1.2016,-1.2017,0,0,0,0,0,0,-1.172,-1.1731,-1.1801,-1.1804,-1.1764,-1.1807,-1.1814,-1.183,-1.1869,-1.1875,-1.1851,-1.1852,-1.1907,-1.1913,-1.1918,-1.1946,-1.194,-1.1942,-1.1944,-1.2016,-1.2017,-1.2017,0,0,0,0,0,0,-1.1718,-1.1726,-1.1798,-1.1768,-1.1778,-1.1809,-1.1826,-1.1831,-1.1844,-1.1876,-1.1882,-1.1858,-1.1907,-1.1914,-1.1942,-1.1949,-1.1943,-1.1946,-1.2016,-1.2016,-1.2017,-1.2002,0,0,0,0,0,0,-1.1715,-1.1725,-1.1733,-1.1768,-1.1779,-1.1821,-1.1827,-1.1833,-1.1848,-1.185,-1.1884,-1.189,-1.1908,-1.1938,-1.1945,-1.1952,-1.1948,-1.2015,-1.2016,-1.2017,-1.2002,-1.2002,-1.2002,0,0,0,0,0,-1.1712,-1.1727,-1.1734,-1.1742,-1.179,-1.1821,-1.1828,-1.1848,-1.1849,-1.1858,-1.1879,-1.1888,-1.1947,-1.1941,-1.1948,-1.1957,-1.2015,-1.2016,-1.2016,-1.2002,-1.2002,-1.2002,0,0,0,0,0,0,-1.1691,-1.1731,-1.174,-1.1766,-1.179,-1.1825,-1.1836,-1.1847,-1.1871,-1.1872,-1.1896,-1.1904,-1.193,-1.1946,-1.1938,-1.198,-1.1982,-1.1984,-1.1968,-1.1969,-1.1969,-1.1964,-1.195,0,0,0,0,0,-1.169,-1.1711,-1.1746,-1.1766,-1.1778,-1.1805,-1.1819,-1.1833,-1.1859,-1.1869,-1.1892,-1.1916,-1.194,-1.1955,-1.1979,-1.2005,-1.2013,-1.2015,-1.2015,-1.2015,-1.2017,-1.2032,-1.2034,-1.202,-1.202,-1.202,0,0,-1.1687,-1.1712,-1.1724,-1.1762,-1.1783,-1.1805,-1.1813,-1.1836,-1.1853,-1.1872,-1.19,-1.1918,-1.1947,-1.1974,-1.1987,-1.1988,-1.2022,-1.2016,-1.2016,-1.2017,-1.2033,-1.2035,-1.2036,-1.202,-1.202,-1.202,0,0,-1.1694,-1.1714,-1.1734,-1.1754,-1.1785,-1.1803,-1.1808,-1.1841,-1.1854,-1.1882,-1.1898,-1.1918,-1.1959,-1.1979,-1.1995,-1.201,-1.202,-1.2017,-1.2017,-1.2032,-1.2033,-1.2034,-1.204,-1.2042,-1.2019,-1.2019,-1.2019,0,-1.1686,-1.172,-1.1742,-1.1765,-1.1781,-1.1801,-1.1821,-1.184,-1.1876,-1.1887,-1.1889,-1.1941,-1.1962,-1.1994,-1.1998,-1.201,-1.2017,-1.2013,-1.2031,-1.2032,-1.2034,-1.204,-1.2042,-1.2018,-1.2018,-1.2018,-1.2019,0,-1.171,-1.1733,-1.1745,-1.1781,-1.1799,-1.182,-1.1846,-1.1862,-1.1874,-1.1893,-1.1922,-1.1948,-1.1977,-1.1986,-1.1999,-1.2021,-1.2021,-1.2026,-1.2028,-1.2034,-1.204,-1.2042,-1.2018,-1.2018,-1.2018,-1.2018,0,0,-1.1704,-1.1752,-1.1756,-1.1773,-1.1809,-1.1827,-1.185,-1.1879,-1.1892,-1.1917,-1.1937,-1.1972,-1.1977,-1.1995,-1.201,-1.2023,-1.2034,-1.2028,-1.2029,-1.2028,-1.2061,-1.2056,-1.2058,-1.2042,-1.2042,-1.2043,-1.2058,0,-1.1715,-1.1756,-1.1777,-1.1809,-1.1831,-1.185,-1.187,-1.1894,-1.1912,-1.1934,-1.1954,-1.1978,-1.1984,-1.1995,-1.2009,-1.203,-1.2041,-1.2029,-1.206,-1.2061,-1.2052,-1.2061,-1.2056,-1.207,-1.2061,-1.2061,-1.2062,0,-1.1733,-1.1759,-1.1792,-1.1826,-1.1837,-1.1854,-1.1883,-1.1903,-1.1931,-1.1944,-1.1964,-1.1979,-1.2004,-1.2004,-1.2039,-1.203,-1.2045,-1.2057,-1.2058,-1.2061,-1.2061,-1.2065,-1.2074,-1.2076,-1.2065,-1.2065,-1.2065,0,-1.1726,-1.1768,-1.1794,-1.1808,-1.1848,-1.186,-1.1877,-1.1905,-1.1922,-1.1947,-1.1959,-1.1987,-1.2002,-1.2024,-1.2046,-1.2044,-1.2079,-1.2081,-1.209,-1.2089,-1.2095,-1.2095,-1.2107,-1.2105,-1.2105,-1.2105,-1.2105,0,-1.1736,-1.1756,-1.1792,-1.1808,-1.1831,-1.1855,-1.1878,-1.1897,-1.1922,-1.1942,-1.196,-1.1979,-1.2008,-1.203,-1.2048,-1.2074,-1.2081,-1.2092,-1.2096,-1.209,-1.2088,-1.2099,-1.2098,-1.2106,-1.2105,-1.2105,-1.2105,0,-1.1731,-1.1756,-1.1786,-1.1822,-1.1831,-1.1847,-1.1878,-1.1894,-1.1913,-1.1939,-1.1946,-1.1977,-1.2004,-1.2029,-1.2065,-1.2077,-1.2104,-1.2109,-1.2094,-1.2096,-1.2104,-1.2103,-1.2123,-1.2127,-1.2122,-1.2122,-1.2122,0,-1.1736,-1.1752,-1.179,-1.1805,-1.1822,-1.1845,-1.1863,-1.1888,-1.1905,-1.1939,-1.1952,-1.198,-1.2005,-1.2047,-1.2073,-1.2101,-1.2107,-1.2113,-1.2112,-1.2105,-1.2107,-1.2106,-1.2108,-1.2112,-1.2112,-1.2112,-1.2112,0,-1.1742,-1.1753,-1.1778,-1.1806,-1.1826,-1.185,-1.1875,-1.1886,-1.1916,-1.1934,-1.1962,-1.1981,-1.2019,-1.2047,-1.2078,-1.2096,-1.2109,-1.2112,-1.2116,-1.2109,-1.21,-1.2105,-1.2093,-1.2112,-1.2112,-1.2112,-1.2112,-1.2112,-1.1742,-1.1757,-1.1787,-1.1813,-1.1834,-1.1857,-1.1874,-1.1896,-1.192,-1.1952,-1.1966,-1.1995,-1.2023,-1.2066,-1.2085,-1.2108,-1.211,-1.2115,-1.2117,-1.2117,-1.2116,-1.2097,-1.2114,-1.2114,-1.2114,-1.2114,-1.2114,0,-1.1749,-1.1769,-1.1793,-1.1827,-1.1848,-1.1858,-1.1886,-1.1903,-1.1928,-1.1954,-1.1977,-1.201,-1.2038,-1.2066,-1.2096,-1.2109,-1.2116,-1.2116,-1.2115,-1.2119,-1.2112,-1.2106,-1.211,-1.211,-1.211,-1.211,-1.211,-1.211,-1.1755,-1.1781,-1.1797,-1.1834,-1.1854,-1.1882,-1.1897,-1.1918,-1.1939,-1.1975,-1.1998,-1.2016,-1.2043,-1.2075,-1.2101,-1.2109,-1.2119,-1.2117,-1.2127,-1.2119,-1.212,-1.212,-1.2114,-1.2119,-1.2119,-1.2132,-1.2132,-1.2132]}]]